Location: Buisson
(44.2787°N, 4.9969°E)
Time: 00:30:50
(UTC+00:00)

Cosmos 2154 Rocket - Pass Details

Date: 18 April 2021
Orbit: 967 x 995 km, 82.9° (Epoch: 07 May)

Event Time Altitude Azimuth Distance (km) Brightness Sun altitude
Rises 00:11:11 0° 353° (N) 3,723 8.0 -34.4°
Reaches altitude 10° 00:13:44 10° 355° (N) 2,771 7.1 -34.3°
Enters shadow 00:18:59 61° 17° (NNE) 1,126 4.4 -34.2°
